Temperature
16 16 16 16 16 16 16 16 17 17 17 17 17 17 17 17 17 17 17 17 17 16 17 17 16 16 16 16 16 15 15 15 15 15 15 15 15 15 15 15 15 15 15
16 16 16 16 16 16 16 16 16 16 16 16 17 17 17 17 17 17 17 16 16 16 16 16 16 16 16 16 16 15 15 15 15 15 15 15 15 15 14 15 15 15 15
15 16 16 16 16 16 16 16 16 16 16 16 16 16 16 16 16 16 16 16 16 16 16 16 16 16 16 16 15 15 15 15 15 15 15 15 15 14 14 14 14 14 14
15 15 15 16 16 16 16 16 16 16 16 16 16 16 16 16 16 16 16 16 16 16 16 16 16 16 16 15 15 15 15 15 15 15 15 15 15 14 14 14 14 14 14
15 15 15 15 16 16 16 16 16 16 16 16 16 16 16 16 16 16 16 16 16 16 16 16 16 16 15 15 15 15 15 15 15 15 15 15 15 14 14 14 14 14 14
15 15 15 15 15 15 16 16 16 16 16 16 16 16 16 16 16 16 16 16 16 16 16 16 16 16 15 15 15 15 15 15 14 15 15 14 14 14 14 14 14 14 14
15 15 15 15 15 15 15 15 15 16 16 16 16 16 16 16 16 16 16 15 15 16 15 15 15 15 15 15 15 15 15 15 14 14 14 14 14 14 14 14 14 14 14
14 14 14 14 14 15 15 15 15 15 15 15 16 16 16 16 16 16 16 15 15 15 15 15 15 15 15 15 15 15 15 15 15 14 14 14 14 14 14 14 14 14 14
14 14 14 14 14 14 14 15 15 15 15 15 15 15 15 15 15 15 15 15 15 15 15 15 15 15 15 15 15 15 15 15 15 14 14 14 14 14 14 14 14 14 14
14 14 14 14 14 14 14 14 14 14 14 15 15 15 15 15 15 15 15 15 15 15 15 15 15 15 15 15 15 15 15 14 14 14 14 14 14 14 14 14 14 14 14
13 13 13 13 13 14 14 14 14 14 14 14 14 14 14 15 15 15 15 15 15 15 15 15 15 15 15 15 15 14 14 14 14 14 14 14 14 14 14 14 14 14 14
13 13 13 13 13 13 13 14 14 14 14 14 14 14 14 14 14 14 14 14 14 14 14 14 14 14 14 14 14 14 14 14 14 14 14 14 14 14 14 14 14 14 14
12 12 12 13 13 13 13 13 13 13 13 13 13 13 14 14 14 14 14 14 14 14 14 14 14 14 14 14 14 14 14 14 14 14 14 14 14 14 14 14 14 14 14
12 12 12 12 12 12 12 12 13 13 13 13 13 13 13 13 13 13 13 13 14 14 14 14 14 14 14 14 14 14 14 14 14 14 14 14 14 14 14 14 14 14 14
11 11 11 12 12 12 12 12 12 12 12 12 12 12 12 13 13 13 13 13 13 13 13 13 13 14 14 14 14 14 14 14 14 14 14 14 14 14 14 14 14 14 14
11 11 11 11 11 11 11 11 11 11 12 12 12 12 12 12 12 12 12 12 13 13 13 13 13 13 13 13 13 13 14 14 14 14 14 14 14 14 14 13 13 13 13
10 10 10 10 10 10 10 10 11 11 11 11 11 11 11 11 11 12 12 12 12 12 12 12 13 13 13 13 13 13 13 13 13 13 13 13 14 14 14 13 13 13 13
10 10 10 10 10 10 10 10 10 10 10 10 11 11 11 11 11 11 11 11 11 12 12 12 12 12 12 12 13 13 13 13 13 13 13 13 13 13 13 13 13 13 13
9 9 9 9 10 10 9 9 10 10 10 10 10 10 10 10 10 10 10 11 11 11 11 11 12 12 12 12 12 12 12 12 12 13 13 13 13 13 13 13 13 13 13
9 9 9 9 9 9 9 9 9 9 9 9 9 9 10 10 10 10 10 10 10 10 11 11 11 11 11 11 11 12 12 12 12 12 12 13 13 13 13 13 13 13 13
9 9 9 9 9 9 9 9 9 9 9 9 9 9 9 9 9 9 9 9 10 10 10 10 10 10 11 11 11 11 11 12 12 12 12 12 12 12 12 12 12 12 12
8 8 8 8 8 8 8 8 8 8 8 8 8 8 8 8 9 9 9 9 9 9 9 9 10 10 10 10 10 10 10 11 11 11 11 12 12 12 12 12 12 12 12
8 8 8 7 7 7 7 7 7 8 8 8 8 8 7 8 8 8 8 8 8 8 8 8 9 9 9 9 9 9 9 9 10 11 11 11 11 11 11 11 11 11 11
7 7 7 7 7 7 7 7 7 7 7 7 7 7 7 7 7 7 7 7 7 7 7 8 8 8 8 8 8 8 8 8 8 9 10 10 10 10 10 11 11 11 11
7 7 7 7 6 6 6 6 6 6 6 6 6 6 6 6 6 6 6 6 6 6 7 7 7 7 7 7 7 7 8 8 8 7 8 9 9 10 10 10 10 10 10
7 7 7 6 6 6 6 6 6 6 6 5 6 6 6 6 6 5 5 5 6 6 6 6 6 6 6 6 6 6 6 6 6 6 6 7 8 9 9 9 9 9 9
Wind_Speed
4 5 3 3 4 5 6 5 5 5 6 7 8 8 8 8 8 7 7 7 7 7 7 7 7 8 8 8 9 9 10 11 11 11 10 9 10 10 10 10 10 10 12
4 5 3 3 4 4 5 5 5 5 5 4 6 6 6 6 7 7 6 6 6 6 6 6 7 7 8 8 9 9 10 10 11 10 10 9 9 9 9 9 9 9 11
3 4 4 4 5 4 4 4 4 4 4 3 3 3 5 5 5 5 5 5 5 5 6 6 6 7 8 8 8 9 9 9 9 9 8 7 6 8 8 8 9 10 10
4 5 5 5 5 5 4 3 3 3 3 3 2 1 2 4 4 5 5 5 5 5 5 6 6 7 8 8 8 8 8 8 8 7 6 5 4 6 7 7 8 8 9
6 6 6 6 6 5 5 4 3 3 2 2 2 1 1 2 3 4 5 5 5 5 6 6 7 8 8 8 8 8 7 8 7 6 4 3 2 4 6 7 7 7 8
6 8 7 7 6 6 5 4 4 3 3 2 2 2 2 2 3 4 5 5 6 6 6 7 8 8 8 8 8 7 8 8 7 5 4 3 2 4 5 6 6 6 7
6 9 9 9 7 7 6 6 5 4 4 4 3 3 3 3 4 4 4 5 6 7 7 8 8 8 9 9 8 8 8 9 7 5 5 4 5 5 6 6 6 6 6
6 9 10 10 9 8 7 7 7 6 6 5 5 4 4 5 5 5 5 6 7 7 8 8 9 9 9 9 9 9 9 9 7 6 6 6 7 7 7 6 6 6 6
10 10 11 11 11 10 9 8 8 7 7 7 6 6 6 5 5 5 5 6 7 8 9 9 10 10 9 10 10 9 9 11 9 7 7 8 8 8 8 8 7 7 6
9 10 11 12 12 11 10 9 9 8 8 7 7 7 7 6 6 6 6 7 8 8 9 10 11 11 10 10 10 10 9 10 9 9 8 9 10 10 10 9 9 8 8
10 9 10 11 12 12 10 10 10 9 8 8 8 8 7 6 6 6 6 7 8 9 10 11 11 12 11 11 11 10 9 9 10 9 10 11 12 12 12 11 11 11 10
9 9 8 9 10 11 10 9 9 8 8 8 8 8 7 6 6 6 6 7 7 8 9 11 11 11 11 9 10 10 8 9 10 10 11 13 14 14 14 13 13 13 12
6 8 9 9 10 9 8 8 7 8 8 8 8 8 7 6 5 5 5 5 6 6 6 7 8 7 8 8 7 8 9 9 9 10 12 14 15 16 16 15 15 15 14
7 8 8 9 9 9 9 7 7 7 7 7 8 8 6 4 4 4 3 4 4 4 4 4 4 5 6 8 9 8 9 8 9 11 12 15 16 17 17 17 17 17 16
7 8 8 8 8 9 8 7 7 7 7 8 8 8 7 4 3 3 3 4 4 4 4 4 4 5 6 6 8 8 8 9 10 11 12 15 17 18 18 18 18 18 18
6 7 7 7 8 9 7 6 6 7 8 8 8 9 9 6 4 4 4 3 4 5 5 5 5 6 6 5 7 8 9 9 11 12 13 14 17 18 19 19 19 19 19
5 6 8 7 8 8 7 7 7 7 8 7 8 10 10 9 7 5 4 4 4 6 6 5 5 4 5 6 7 8 8 9 9 11 12 13 14 17 19 20 20 20 19
5 6 7 7 8 8 7 6 6 7 7 7 8 9 10 10 9 6 4 4 6 5 4 4 4 5 5 6 7 7 7 7 9 10 11 11 12 13 16 19 20 20 20
5 5 7 7 8 7 7 6 6 6 6 7 8 9 10 11 10 7 4 5 6 4 3 4 4 4 5 6 7 7 7 7 8 8 9 10 12 13 13 15 18 19 20
4 5 6 7 7 7 5 4 4 5 5 7 8 9 11 10 10 8 5 6 6 4 4 4 5 4 4 5 7 7 6 7 6 7 8 8 9 12 13 12 13 16 19
5 6 6 7 7 6 4 4 4 4 5 5 6 10 11 11 10 8 6 6 5 4 4 5 4 5 4 3 3 4 5 6 7 6 6 6 7 9 10 11 12 12 13
4 5 5 6 6 6 4 3 2 3 3 3 5 9 11 11 10 8 6 5 5 5 5 5 4 3 3 2 1 2 3 3 4 6 6 6 7 6 7 9 10 10 11
3 4 4 5 6 6 5 3 3 3 3 4 6 6 9 11 10 9 8 6 5 4 4 5 4 4 3 2 1 1 2 3 3 3 4 6 5 5 6 6 8 9 11
3 2 3 4 4 5 5 4 4 3 3 4 5 5 7 9 9 10 9 7 5 5 5 5 4 3 3 3 2 2 3 2 2 3 3 3 3 5 5 6 6 7 8
2 2 2 3 4 4 4 4 3 3 3 3 4 6 6 6 8 9 8 7 6 5 5 5 5 4 3 2 2 2 2 3 2 3 5 3 3 3 4 5 4 4 5
2 2 2 2 3 4 4 3 3 3 4 4 5 6 6 5 5 8 8 7 6 5 5 5 5 4 4 3 2 2 1 2 2 2 4 4 5 4 4 3 3 3 4
Wind_Direction
315 321 348 59 85 93 92 89 92 101 117 125 124 124 125 126 126 127 129 131 131 129 125 123 121 117 117 117 115 112 110 106 102 99 97 100 105 104 104 98 91 92 98
280 317 4 46 78 93 92 84 78 82 93 120 133 136 139 141 141 142 143 143 144 141 138 138 134 129 126 126 123 116 113 109 106 102 96 93 101 107 105 102 102 104 100
326 351 17 43 61 75 87 85 80 75 75 86 125 147 154 158 160 162 160 161 158 152 149 150 149 143 138 134 132 129 124 121 117 108 102 97 102 113 110 106 106 105 105
358 18 29 44 55 57 67 72 73 71 65 59 67 143 179 181 176 178 179 181 175 168 164 162 159 155 151 147 145 143 139 135 129 118 110 104 107 123 124 117 113 113 108
24 25 30 42 44 44 49 52 51 44 37 37 29 16 281 234 211 197 194 192 188 187 181 175 168 164 163 163 160 156 152 147 141 133 129 122 128 139 138 132 124 119 116
27 23 29 40 40 37 35 36 35 30 17 3 356 351 326 301 261 238 216 200 195 198 197 188 182 178 177 179 176 171 166 159 151 148 158 176 192 171 153 145 143 137 130
30 25 30 37 36 33 27 23 17 15 11 358 339 330 323 312 292 267 246 224 209 206 207 201 195 192 189 188 190 186 178 168 166 169 182 199 208 193 176 165 164 162 153
34 25 27 30 30 27 21 14 10 7 360 353 342 327 319 313 303 285 262 243 228 219 216 213 205 202 201 198 199 196 188 178 178 186 197 209 213 206 196 184 179 174 169
34 28 24 20 20 18 14 10 2 359 356 353 348 340 330 319 309 301 285 260 242 232 223 221 217 211 209 207 205 202 195 191 183 192 206 214 218 213 205 197 190 187 186
32 24 19 15 14 10 3 4 2 357 354 352 351 347 339 326 314 306 298 279 256 241 231 225 223 218 216 212 210 207 202 194 194 201 210 217 221 217 214 209 204 204 203
22 16 14 11 9 6 3 2 360 359 359 359 353 347 343 334 321 310 304 294 273 254 241 231 228 223 219 216 213 211 205 198 199 208 214 220 223 223 221 218 214 213 212
10 5 11 7 4 3 3 1 360 359 358 360 354 347 342 334 325 316 308 301 290 273 255 242 234 227 221 217 217 214 210 205 205 213 219 224 227 229 227 224 220 219 218
3 4 3 2 3 4 1 358 357 358 359 357 356 348 343 341 337 331 322 312 302 291 276 261 248 236 224 216 215 216 216 213 215 219 223 226 230 233 232 229 225 223 223
15 6 0 360 4 3 0 355 357 359 358 356 350 350 351 348 340 330 321 312 304 292 279 270 254 243 232 226 220 219 220 220 223 225 228 229 232 235 236 234 229 227 227
16 4 359 359 4 359 0 357 4 0 357 352 354 354 353 344 323 319 314 310 300 292 277 264 255 247 241 235 231 226 225 226 229 228 232 232 232 235 238 238 233 230 230
13 4 357 4 4 360 359 357 360 0 359 360 358 353 352 347 334 319 311 306 301 293 280 266 259 254 249 245 241 235 234 234 234 234 235 236 235 236 238 241 240 235 232
7 2 359 3 5 2 359 359 5 1 1 1 358 355 355 351 340 329 316 310 306 299 290 282 273 263 257 250 247 241 237 236 238 237 237 237 238 238 238 241 243 240 237
9 4 360 2 1 358 357 359 3 2 3 3 359 356 356 354 350 344 330 320 317 307 294 281 276 271 263 257 252 247 240 236 237 238 238 236 236 238 239 239 242 243 241
8 0 357 356 357 352 351 357 0 4 7 5 3 2 357 356 355 353 340 331 327 314 296 288 278 265 267 268 262 253 243 238 236 236 233 234 234 234 235 237 238 242 244
9 3 359 357 356 350 348 353 360 7 8 9 7 3 360 357 355 356 347 342 338 321 315 308 292 279 267 271 272 265 253 242 233 232 233 233 234 234 235 238 238 240 241
10 7 2 1 357 359 358 355 352 354 351 358 3 2 360 357 356 1 351 345 344 329 321 316 299 295 283 292 276 277 266 247 237 235 230 230 231 233 233 234 237 237 240
359 358 359 1 356 359 355 341 326 321 331 346 354 359 1 359 358 1 357 347 344 336 336 336 334 308 296 309 283 290 292 291 256 241 235 231 234 231 230 232 234 236 239
339 343 351 352 354 355 351 353 351 352 339 349 353 353 355 358 360 1 359 353 349 349 340 335 337 321 300 295 280 261 273 265 308 279 244 237 238 239 238 234 234 237 239
294 316 333 344 351 352 356 9 14 10 351 333 333 336 343 356 359 359 359 357 350 346 342 336 342 322 308 306 300 282 266 273 270 291 291 275 266 254 248 245 239 240 240
269 291 316 339 348 354 3 6 10 2 335 325 335 340 344 350 357 358 356 357 352 346 341 341 339 337 322 305 302 300 287 292 267 264 282 295 294 270 263 254 243 240 248
261 283 309 337 340 347 357 1 3 350 344 346 345 344 344 345 348 355 354 353 351 348 342 336 335 335 329 324 315 313 301 290 284 265 271 288 286 275 274 250 239 247 261
Height
1530 1530 1530 1531 1531 1532 1532 1533 1533 1534 1535 1535 1536 1536 1536 1537 1537 1537 1537 1537 1537 1537 1536 1536 1536 1536 1536 1536 1536 1537 1537 1537 1537 1538 1538 1538 1538 1539 1539 1539 1540 1540 1541
1529 1530 1530 1531 1531 1532 1533 1533 1534 1534 1535 1535 1536 1536 1536 1537 1537 1537 1537 1537 1537 1537 1537 1537 1537 1537 1537 1537 1537 1537 1537 1538 1538 1538 1539 1539 1539 1540 1540 1540 1541 1541 1541
1529 1529 1530 1531 1531 1532 1532 1533 1533 1534 1534 1535 1535 1536 1536 1536 1537 1537 1537 1537 1537 1537 1537 1537 1537 1537 1537 1537 1537 1538 1538 1538 1538 1539 1539 1539 1540 1540 1540 1541 1541 1542 1542
1529 1529 1530 1530 1531 1531 1532 1533 1533 1534 1534 1534 1535 1535 1536 1536 1536 1536 1537 1537 1537 1537 1537 1537 1537 1537 1537 1538 1538 1538 1538 1538 1539 1539 1539 1540 1540 1540 1541 1541 1541 1542 1542
1528 1529 1529 1530 1530 1531 1531 1532 1532 1533 1533 1534 1534 1534 1535 1535 1535 1536 1536 1536 1536 1536 1536 1537 1537 1537 1537 1537 1538 1538 1538 1538 1539 1539 1540 1540 1540 1540 1541 1541 1541 1542 1542
1528 1528 1529 1529 1530 1530 1530 1531 1531 1532 1532 1532 1533 1533 1533 1534 1534 1534 1535 1535 1535 1535 1536 1536 1536 1536 1537 1537 1537 1538 1538 1538 1539 1539 1539 1540 1540 1540 1540 1541 1541 1541 1542
1527 1528 1528 1528 1529 1529 1529 1529 1530 1530 1531 1531 1531 1532 1532 1532 1533 1533 1533 1533 1534 1534 1534 1535 1535 1535 1536 1536 1537 1537 1537 1538 1538 1539 1539 1539 1539 1540 1540 1540 1541 1541 1541
1527 1527 1527 1527 1528 1528 1528 1528 1528 1528 1529 1529 1529 1530 1530 1530 1531 1531 1531 1532 1532 1532 1533 1533 1534 1534 1534 1535 1535 1536 1536 1537 1537 1538 1538 1538 1539 1539 1539 1540 1540 1540 1541
1526 1526 1526 1526 1526 1526 1526 1526 1526 1527 1527 1527 1527 1527 1528 1528 1528 1528 1529 1529 1530 1530 1531 1531 1532 1532 1532 1533 1534 1534 1535 1535 1536 1536 1537 1537 1538 1538 1538 1539 1539 1539 1540
1526 1526 1525 1525 1525 1525 1525 1525 1525 1525 1524 1524 1525 1525 1525 1525 1526 1526 1526 1526 1527 1528 1528 1529 1529 1530 1530 1531 1531 1532 1533 1533 1534 1534 1535 1536 1536 1537 1537 1537 1538 1538 1539
1525 1524 1524 1523 1523 1523 1523 1523 1523 1522 1522 1522 1522 1522 1522 1522 1523 1523 1523 1523 1524 1524 1525 1526 1527 1527 1528 1528 1529 1530 1530 1531 1531 1532 1533 1534 1534 1535 1535 1536 1536 1537 1537
1523 1523 1523 1522 1521 1521 1521 1520 1520 1520 1520 1520 1519 1519 1519 1519 1519 1519 1520 1520 1521 1521 1522 1522 1523 1524 1524 1525 1526 1527 1527 1528 1529 1529 1530 1531 1532 1532 1533 1534 1534 1535 1535
1523 1522 1522 1521 1520 1519 1518 1518 1517 1517 1517 1517 1517 1516 1516 1516 1516 1516 1516 1517 1517 1518 1518 1518 1519 1520 1521 1521 1522 1523 1524 1524 1525 1526 1527 1528 1529 1530 1530 1531 1532 1532 1533
1522 1522 1521 1520 1519 1518 1517 1516 1515 1514 1514 1514 1513 1513 1513 1513 1513 1513 1513 1513 1513 1514 1514 1515 1515 1516 1517 1517 1518 1519 1520 1520 1521 1522 1523 1524 1525 1526 1527 1528 1528 1529 1530
1521 1520 1519 1518 1517 1516 1515 1514 1513 1512 1511 1511 1510 1510 1510 1509 1509 1509 1509 1509 1510 1510 1510 1510 1511 1511 1512 1513 1513 1514 1515 1516 1517 1518 1519 1520 1521 1522 1523 1524 1525 1525 1526
1520 1519 1518 1517 1516 1514 1513 1512 1511 1510 1509 1509 1508 1507 1507 1506 1506 1506 1505 1506 1506 1506 1506 1506 1506 1506 1507 1507 1508 1509 1510 1511 1512 1513 1514 1515 1517 1518 1519 1520 1521 1521 1522
1520 1519 1518 1516 1515 1513 1512 1510 1509 1508 1507 1506 1505 1505 1504 1503 1503 1502 1502 1502 1502 1502 1501 1501 1501 1502 1502 1502 1503 1503 1504 1505 1506 1507 1508 1510 1511 1513 1514 1515 1516 1517 1518
1519 1518 1517 1515 1514 1512 1510 1509 1508 1506 1505 1504 1503 1502 1501 1500 1499 1499 1498 1498 1498 1497 1497 1497 1496 1496 1497 1497 1497 1498 1498 1499 1500 1501 1502 1504 1505 1507 1508 1509 1511 1512 1513
1518 1517 1515 1514 1512 1511 1509 1507 1506 1504 1503 1501 1500 1499 1498 1497 1496 1495 1494 1494 1493 1493 1492 1492 1492 1492 1491 1491 1492 1492 1492 1492 1494 1495 1496 1497 1499 1500 1502 1503 1505 1506 1507
1517 1515 1514 1512 1511 1509 1507 1506 1504 1503 1501 1499 1498 1496 1495 1494 1493 1492 1491 1490 1489 1488 1488 1487 1487 1487 1486 1486 1486 1486 1486 1486 1487 1488 1489 1491 1492 1494 1495 1497 1498 1500 1501
1515 1514 1512 1511 1509 1507 1505 1503 1501 1500 1498 1497 1495 1494 1492 1491 1489 1488 1487 1486 1485 1484 1483 1483 1482 1482 1482 1481 1481 1480 1480 1480 1480 1481 1483 1484 1486 1487 1489 1490 1492 1493 1495
1513 1512 1511 1509 1507 1505 1503 1502 1500 1498 1496 1495 1493 1491 1489 1488 1486 1485 1483 1482 1481 1480 1480 1479 1478 1477 1477 1477 1477 1476 1474 1475 1473 1475 1477 1478 1479 1481 1482 1483 1485 1486 1487
1512 1510 1509 1507 1506 1504 1502 1500 1498 1496 1494 1492 1490 1489 1487 1485 1483 1482 1481 1479 1478 1477 1476 1475 1475 1474 1473 1473 1474 1474 1473 1471 1469 1470 1471 1472 1473 1474 1475 1476 1477 1479 1481
1510 1509 1507 1506 1504 1502 1500 1498 1496 1494 1492 1490 1488 1486 1485 1483 1481 1479 1478 1477 1475 1474 1473 1472 1471 1471 1470 1469 1470 1470 1471 1470 1469 1466 1466 1467 1467 1468 1469 1470 1471 1472 1473
1508 1507 1506 1504 1503 1501 1499 1497 1495 1493 1491 1489 1487 1485 1483 1481 1479 1477 1476 1474 1472 1471 1470 1469 1468 1467 1466 1466 1466 1466 1466 1466 1465 1464 1461 1461 1462 1462 1463 1464 1465 1466 1467
1506 1505 1504 1502 1501 1499 1497 1495 1493 1491 1489 1487 1485 1483 1481 1479 1477 1475 1473 1472 1470 1468 1467 1466 1464 1464 1463 1462 1462 1462 1461 1461 1461 1460 1459 1457 1456 1456 1457 1458 1459 1460 1460